Location: Archemont
(49.1579°N, 1.7598°E)
Time: 13:55:02
(UTC+00:00)

Cosmos 1544 Rocket - Pass Details

Date: 03 February 2023
Orbit: 604 x 628 km, 82.5° (Epoch: 29 March)

Event Time Altitude Azimuth Distance (km) Brightness Sun altitude
Rises 17:20:22 0° 348° (NNW) 2,873 6.9 -5.1°
Reaches altitude 10° 17:22:36 10° 346° (NNW) 1,964 6.1 -5.4°
Maximum altitude 17:26:55 70° 264° (W) 648 3.9 -6.1°
Drops below altitude 10° 17:31:12 10° 180° (S) 1,952 6.4 -6.7°
Sets 17:33:25 0° 178° (S) 2,854 7.2 -7.1°
